Location: Elche
(38.2500°N, 0.7000°W)
Time: 09:54:20
(UTC+01:00)

Envisat - Visible Passes

Search period start: 26 March 2019 00:00
Search period end: 05 April 2019 01:00
Orbit: 764 x 766 km, 98.2° (Epoch: 25 March)

Date Brightness Start Highest point End Pass type
(mag) Time Alt. Az. Time Alt. Az. Time Alt. Az.
26 Mar 5.0 20:29:35 10° SSW 20:33:59 30° W 20:38:26 10° NW visible
27 Mar 3.4 19:52:04 10° S 19:57:07 70° WSW 20:02:12 10° NNW visible
28 Mar 5.8 20:56:32 10° SW 20:59:44 17° W 21:02:56 10° NW visible
29 Mar 4.6 20:18:01 10° SSW 20:22:43 38° W 20:27:27 10° NNW visible
31 Mar 5.6 21:44:36 10° SW 21:48:25 21° W 21:52:15 10° NW visible
01 Apr 4.1 21:06:34 10° S 21:11:28 49° W 21:16:23 10° NNW visible
02 Apr 6.1 22:12:35 10° WSW 22:14:12 11° W 22:15:50 10° WNW visible
03 Apr 5.2 21:32:50 10° SSW 21:37:07 27° W 21:41:24 10° NW visible
04 Apr 3.6 20:55:12 10° S 21:00:13 63° WSW 21:05:16 10° NNW visible
